Wind_Speed
7 8 7 6 4 4 1 1 2 3 3 4 7 9 10 12 13 13 15 16 16 17 19 20 22 22 17 11 8 5 4 4 7 8 11 12 10 11 12 11 11 12 13 14 15 13 13
8 7 6 7 5 4 3 1 1 2 4 5 6 10 11 12 14 15 15 16 15 16 17 18 19 20 10 12 5 1 3 3 10 11 15 13 11 11 11 14 13 16 14 14 16 17 15
9 9 8 7 6 5 4 2 2 3 4 6 7 9 11 13 15 16 17 17 16 15 15 16 16 13 10 17 13 11 5 9 11 15 14 15 12 13 13 15 11 13 16 17 18 19 18
10 9 9 8 7 6 4 2 2 3 4 6 8 9 12 13 15 16 18 18 17 16 14 13 13 9 7 14 17 15 12 16 14 14 15 16 14 13 16 16 19 18 18 15 18 6 5
10 9 8 8 7 5 3 1 1 3 5 7 8 10 12 15 16 17 18 19 16 15 14 10 9 8 11 5 12 16 17 19 18 18 17 15 11 14 15 15 14 15 15 18 17 14 7
11 9 8 7 6 5 3 1 2 3 5 7 9 10 13 15 16 17 18 16 13 16 10 8 14 9 13 12 12 5 8 11 14 14 14 14 9 14 14 14 15 17 17 15 13 11 9
12 8 9 8 7 5 3 3 3 4 5 6 8 11 12 14 15 13 17 10 5 6 10 13 8 12 10 8 5 11 15 12 12 14 18 16 15 16 19 18 21 19 21 21 21 17 20
12 11 9 8 6 5 3 2 3 4 5 6 9 10 12 13 7 9 9 7 7 4 9 16 22 22 28 26 18 13 10 10 13 16 18 18 21 21 22 22 23 23 23 20 19 21 19
12 11 9 7 6 4 2 2 3 4 5 7 9 11 13 8 3 6 8 9 8 6 7 14 25 23 22 23 25 23 19 19 17 21 18 21 24 23 25 23 22 21 22 19 22 21 23
10 9 8 7 5 4 2 2 3 5 6 7 9 10 12 5 4 5 4 9 7 6 5 9 15 11 24 23 29 21 28 23 24 25 23 23 22 24 25 27 22 20 21 21 21 20 14
9 8 8 6 5 4 2 1 2 3 6 7 9 10 8 10 8 5 9 12 5 3 5 7 7 15 8 22 22 19 34 24 27 27 23 26 25 25 25 27 23 22 21 17 19 18 17
7 7 6 6 6 4 3 2 2 4 6 8 8 8 9 5 2 6 11 8 3 4 7 6 3 4 10 13 18 20 22 18 22 26 24 27 28 27 27 26 24 22 21 19 17 12 14
8 6 6 7 6 5 4 4 2 3 6 8 8 7 7 7 7 11 12 5 3 5 5 4 8 8 13 16 16 17 16 16 12 17 20 26 30 28 25 26 24 23 16 12 15 13 13
8 7 6 5 6 6 5 4 5 4 6 7 8 7 6 7 8 11 9 4 6 5 11 17 16 16 17 14 17 16 17 14 18 22 19 18 20 27 24 26 25 22 18 14 24 16 15
10 8 6 6 6 7 6 5 3 3 5 6 6 7 6 5 5 7 4 7 5 5 6 10 14 15 15 15 16 19 17 18 18 19 22 19 25 26 27 23 25 25 21 22 20 20 14
9 7 6 6 6 5 5 5 4 4 4 4 7 7 7 2 2 3 4 8 8 8 13 14 15 12 16 17 18 16 16 16 15 15 22 19 19 16 33 26 21 17 19 21 16 22 23
10 8 8 7 6 6 5 4 4 5 3 2 6 3 6 1 1 4 5 7 13 16 16 18 15 17 19 19 18 20 21 20 7 21 21 14 7 18 20 25 21 15 13 19 17 16 16
10 9 8 7 7 6 5 4 5 5 3 2 4 3 3 2 4 6 9 7 5 18 18 19 15 16 18 17 19 22 23 21 22 12 13 12 5 11 21 22 20 15 21 18 6 8 16
12 10 10 9 7 7 7 5 3 6 8 7 3 2 1 3 5 9 14 17 15 14 14 15 19 19 18 20 20 19 21 20 19 17 7 9 6 7 12 15 18 17 16 26 21 12 20
12 14 12 11 11 10 8 7 7 6 8 4 3 2 2 4 8 13 14 15 18 16 17 14 15 16 18 21 21 22 23 20 18 19 12 4 7 12 13 21 24 18 19 20 22 16 13
15 14 15 14 13 11 10 9 8 8 7 6 2 4 6 3 8 11 14 13 18 19 19 17 18 19 18 18 19 19 22 22 20 20 15 4 13 13 23 24 23 26 28 26 22 22 24
17 15 16 15 15 13 13 13 12 12 8 10 2 3 6 9 13 15 12 15 19 19 20 21 22 22 19 20 17 18 13 13 8 13 15 7 8 12 24 25 21 21 29 29 29 26 21
13 14 15 15 14 13 14 14 16 17 14 11 8 11 4 7 11 12 13 18 17 17 18 21 22 20 21 19 15 13 16 15 15 15 15 13 7 8 21 17 19 16 20 20 25 27 21
12 14 15 16 16 16 17 19 20 20 22 21 15 7 3 11 13 15 18 21 22 20 19 22 20 18 20 15 19 15 17 17 17 17 16 17 14 10 16 18 15 16 16 20 26 28 26
16 16 18 18 19 20 21 21 22 24 25 25 24 17 3 9 12 15 18 20 21 21 22 20 20 20 13 13 8 9 9 14 18 20 20 17 15 13 15 15 21 29 23 22 17 28 25
16 18 20 21 24 24 24 23 25 26 26 26 27 26 14 7 13 21 19 19 15 14 16 20 18 20 15 12 9 10 10 14 11 15 11 20 20 16 15 14 15 24 17 22 21 22 16
20 22 22 22 23 25 25 27 27 28 29 30 25 28 20 11 16 16 12 15 17 17 14 17 17 14 8 10 10 13 15 16 18 20 20 14 13 14 15 18 18 30 25 22 15 11 26
19 21 22 24 26 27 28 29 32 32 33 33 33 31 24 8 17 21 21 22 18 15 13 10 8 9 7 6 6 11 9 12 16 23 23 20 16 14 15 19 24 16 15 18 8 22 24
21 22 22 24 26 26 27 28 28 30 31 32 27 33 37 21 5 14 34 42 35 28 16 15 15 16 2 4 6 6 9 8 15 14 18 17 17 15 17 15 22 25 25 26 25 24 26
Wind_Direction
144 160 145 145 147 147 152 91 5 356 339 337 341 332 331 331 331 329 327 327 326 326 328 333 338 343 346 317 300 12 360 202 209 221 257 264 265 274 271 276 299 282 269 269 277 291 280
161 156 156 160 145 124 118 105 23 355 352 344 351 340 330 328 324 323 324 323 322 321 323 328 336 340 314 280 341 19 291 216 230 229 261 260 277 290 311 285 282 293 302 289 278 272 273
148 145 143 140 138 140 127 100 59 11 13 2 353 338 332 329 327 324 319 318 319 315 314 321 330 337 284 257 283 287 266 255 244 253 267 275 283 282 285 291 272 293 288 278 267 246 244
144 142 142 144 130 129 127 131 71 21 6 2 353 339 333 330 327 324 320 315 309 309 301 310 315 310 264 268 278 270 259 256 253 263 259 276 297 279 274 282 286 281 273 278 277 127 191
150 145 144 133 131 131 130 117 41 354 343 345 345 336 329 325 322 319 316 311 302 293 294 294 300 224 275 265 243 254 243 249 255 247 252 263 277 272 273 261 267 255 258 268 271 188 180
153 146 135 131 126 120 112 74 12 7 344 343 339 337 336 329 325 321 315 305 290 283 275 258 251 287 235 261 261 275 265 258 265 252 253 236 249 256 249 249 257 265 266 264 245 250 201
155 156 143 132 123 114 106 84 46 32 11 349 344 342 342 335 329 334 335 320 229 198 231 233 208 234 287 250 276 260 250 231 237 244 241 233 239 241 252 247 255 264 272 281 294 307 301
157 161 148 137 127 118 104 58 37 19 5 354 348 346 342 338 352 360 328 350 26 328 296 269 259 264 263 272 281 264 259 238 248 242 239 242 242 242 255 256 265 271 277 281 276 280 272
152 152 146 144 134 127 105 69 21 12 3 353 351 349 346 344 345 4 48 22 337 328 256 273 243 249 247 242 251 250 253 260 251 262 241 246 247 242 246 248 258 266 269 268 279 286 288
157 160 153 151 152 147 122 69 38 12 2 353 352 353 357 331 321 342 79 348 328 324 271 262 234 239 235 234 249 243 238 246 249 248 255 254 252 253 257 256 241 259 263 263 264 267 268
169 165 157 158 166 159 159 85 4 352 340 341 344 352 6 29 324 351 340 329 324 266 290 301 257 219 209 216 249 250 229 229 237 242 236 250 255 254 261 261 258 260 266 272 280 290 286
171 163 176 189 201 208 224 237 294 326 330 325 332 344 357 18 321 351 330 321 274 225 248 285 324 194 235 259 250 263 281 243 237 246 249 251 251 254 256 256 256 264 260 262 269 257 264
181 189 206 199 197 207 221 242 270 312 319 319 322 331 338 327 344 339 330 253 235 240 309 270 274 267 253 262 261 249 255 269 256 252 250 246 248 252 256 261 269 241 249 251 247 242 249
194 192 202 199 212 233 241 248 245 263 297 317 323 320 319 291 311 331 314 231 244 260 249 316 323 321 300 308 304 267 255 238 263 244 269 261 253 241 240 245 253 253 242 242 247 243 250
189 194 203 213 220 226 233 242 252 269 293 312 318 308 281 282 315 331 278 231 200 255 267 345 332 302 283 274 262 277 276 274 247 246 265 254 261 277 286 286 239 243 242 253 252 260 258
192 206 213 212 218 227 232 232 237 257 284 325 319 306 259 139 318 286 235 238 242 256 295 305 295 297 294 305 312 313 298 277 278 5 10 333 294 234 276 291 287 282 305 230 242 248 247
195 199 194 202 207 216 222 220 220 243 266 298 287 253 69 156 228 228 226 233 245 257 270 283 282 281 292 298 295 295 295 302 14 1 356 28 315 295 269 259 268 273 263 268 246 244 240
203 204 206 215 220 226 223 207 216 223 228 226 301 227 54 174 218 228 225 252 234 283 296 296 285 276 279 288 287 283 285 287 303 348 353 12 287 282 276 281 283 263 273 263 242 279 292
215 217 218 219 217 219 217 218 230 231 213 325 259 278 170 250 246 242 262 269 255 274 275 282 282 282 282 279 277 275 281 283 287 305 100 356 16 315 273 263 255 264 220 257 278 221 255
226 222 221 221 220 218 221 224 213 226 221 246 283 260 162 206 268 284 290 287 281 268 253 254 275 286 290 284 283 284 279 281 291 294 145 135 273 252 276 292 321 305 284 234 237 256 269
234 229 222 223 227 223 223 219 216 219 220 214 257 241 254 220 229 249 256 276 285 291 295 289 272 266 268 283 288 277 280 284 285 288 285 271 268 280 276 283 291 302 304 293 271 230 239
225 226 221 222 228 229 228 227 225 224 215 227 251 263 260 266 277 264 240 258 273 283 282 273 274 277 276 268 281 313 342 329 339 334 296 248 272 306 292 287 277 317 297 279 278 265 255
218 218 220 223 225 228 232 234 234 229 210 222 237 266 300 273 262 258 262 269 265 272 267 276 281 283 283 285 306 287 284 274 274 286 294 292 299 301 274 301 331 293 263 272 270 265 258
229 228 234 238 243 247 249 246 242 236 223 231 240 233 230 257 257 264 279 284 283 279 277 280 277 275 287 308 325 315 299 275 266 258 254 261 272 274 281 301 272 258 280 302 295 285 263
245 243 242 246 251 254 254 252 246 241 239 235 243 244 238 259 260 262 266 269 273 277 273 272 277 283 280 276 282 280 270 277 266 264 262 253 248 248 251 256 280 290 265 271 292 307 268
247 252 253 255 259 260 256 250 246 243 239 236 242 246 249 271 244 259 274 274 281 281 279 275 268 272 278 276 249 250 249 262 261 270 262 230 237 245 241 241 248 263 281 259 351 282 286
254 257 258 258 259 257 256 254 250 246 242 235 239 235 245 254 255 254 248 256 261 269 274 277 285 276 282 252 246 244 253 256 258 264 264 268 278 262 253 248 254 261 280 290 268 279 330
257 262 263 267 265 260 257 255 251 249 246 240 240 236 238 246 250 244 237 245 258 266 269 279 294 250 217 245 253 246 242 250 253 254 255 257 258 261 274 268 263 277 288 235 286 324 319
272 269 272 272 267 260 257 253 251 248 247 245 243 236 235 241 269 272 239 240 243 247 258 265 261 272 324 277 236 261 251 255 249 254 257 260 263 267 258 268 277 283 300 295 296 301 306
Height
823 824 822 824 825 825 828 829 829 827 826 824 824 823 822 820 818 816 814 812 811 809 807 804 801 797 790 784 775 776 776 776 777 777 776 770 770 769 775 764 756 763 757 750 745 743 744
822 823 824 826 825 825 827 829 829 827 826 825 822 824 822 820 818 816 814 812 809 808 806 804 802 798 796 793 776 776 777 777 777 778 773 769 767 763 769 766 765 754 753 752 746 745 741
823 824 825 826 825 827 827 830 828 828 826 826 823 823 821 819 817 815 813 812 809 807 805 804 803 801 796 785 776 775 776 776 775 774 771 767 766 767 764 767 751 753 764 752 743 735 739
823 825 826 827 826 827 828 830 829 828 827 825 823 822 822 819 817 814 812 810 808 806 804 803 802 802 790 776 775 773 773 773 773 771 771 770 767 766 767 760 758 764 760 770 735 724 732
823 825 827 826 826 827 829 830 828 828 827 825 823 823 822 819 816 813 810 808 805 803 802 802 801 799 785 772 770 769 770 769 768 768 768 768 768 770 767 775 776 763 778 762 743 721 731
823 825 825 825 827 827 829 830 829 826 827 826 825 823 820 819 815 811 807 803 801 799 800 800 799 800 778 771 764 767 767 767 766 765 765 769 772 778 773 778 793 771 758 746 745 728 731
821 825 825 826 827 828 829 830 829 827 827 827 825 824 819 817 815 810 806 800 799 799 797 784 777 777 764 764 767 766 764 763 765 765 776 767 780 784 770 760 756 756 756 755 738 725 733
822 825 825 826 828 828 828 830 830 829 828 826 825 823 820 816 814 810 808 805 809 813 800 784 777 772 767 766 765 764 761 767 766 773 765 772 771 762 755 753 755 754 756 753 740 731 732
823 825 826 828 828 829 830 829 831 829 828 827 824 822 819 816 814 811 811 813 813 811 802 774 767 764 762 765 762 760 762 760 767 767 762 769 756 749 750 751 757 754 755 753 753 738 728
823 826 826 828 828 830 831 831 830 830 829 827 825 822 820 816 816 813 813 814 813 811 800 768 754 747 750 753 754 751 754 759 760 763 756 754 741 746 747 745 744 756 737 738 744 749 761
825 827 826 829 829 829 831 831 831 830 831 828 826 824 821 819 817 813 817 815 812 811 816 748 737 733 739 749 749 741 742 744 757 753 757 754 748 747 749 739 733 739 733 736 739 746 746
823 823 826 828 830 829 830 832 833 831 829 830 827 825 822 820 818 819 818 815 812 810 808 762 744 745 751 749 746 743 740 738 737 747 743 741 728 733 733 727 725 726 734 737 739 749 770
824 825 827 828 830 831 832 832 832 832 830 831 829 826 824 823 820 819 818 814 813 810 768 761 756 747 751 754 747 747 751 754 758 764 757 741 735 727 725 734 724 728 743 767 775 770 768
823 825 827 827 828 830 831 833 834 833 832 830 829 826 825 824 823 821 819 813 819 788 781 762 762 762 764 755 752 745 746 756 747 748 753 751 751 729 720 729 735 730 736 759 773 767 754
823 825 827 827 830 831 831 832 833 832 832 832 829 827 825 824 823 822 819 818 813 795 780 782 781 779 773 761 760 755 751 749 740 739 753 755 748 723 719 717 718 729 734 719 743 735 747
823 824 826 827 829 830 831 831 833 834 834 832 829 827 823 823 824 825 821 817 803 793 788 786 795 787 786 777 771 763 756 742 743 749 755 753 754 742 731 724 721 734 726 734 731 757 756
822 825 825 828 829 830 831 832 833 835 834 834 831 822 826 826 826 823 822 811 801 795 794 795 793 794 789 785 781 777 770 754 752 762 763 778 768 747 726 723 730 729 733 720 718 724 733
821 823 824 826 828 829 832 832 834 835 836 835 832 821 826 827 825 815 813 807 804 800 797 795 792 795 796 791 789 785 779 768 755 761 778 781 779 765 743 713 708 714 728 731 762 771 735
820 821 824 826 827 830 832 832 833 834 836 836 831 821 828 828 818 811 804 800 797 800 800 800 797 791 789 790 792 784 778 769 766 766 790 789 790 786 740 724 710 722 723 734 731 743 762
818 820 823 825 828 830 831 832 833 835 837 840 835 827 827 826 822 818 812 804 799 793 794 798 799 797 799 797 791 786 779 773 769 769 782 779 785 793 784 755 748 740 719 715 726 743 745
816 818 821 824 827 828 830 831 833 835 837 840 836 826 816 818 822 820 816 811 808 804 796 791 790 791 795 794 790 786 782 779 775 773 773 776 781 785 772 765 764 752 740 720 717 716 734
813 815 819 822 824 826 828 830 832 834 837 839 834 832 822 816 814 812 816 812 810 805 803 798 794 791 787 787 787 793 803 793 790 778 774 771 782 785 773 763 761 774 754 733 716 700 697
811 813 817 819 822 823 825 827 829 832 835 833 834 834 833 822 814 811 807 802 803 805 802 798 796 793 791 789 788 792 794 793 792 791 789 787 790 792 773 763 767 766 728 726 712 695 693
810 812 814 816 818 820 821 823 825 827 830 831 829 832 833 823 820 816 810 805 801 797 800 799 794 793 792 791 791 787 788 782 782 781 780 780 782 785 778 775 781 730 718 716 723 708 682
807 808 810 811 813 814 816 818 820 822 826 828 829 829 829 819 814 814 811 807 802 797 796 794 794 791 791 794 804 797 790 784 777 773 771 769 771 778 783 775 754 736 718 723 710 701 672
803 804 805 807 808 809 810 812 814 817 821 825 823 826 825 820 811 813 810 807 803 799 795 790 790 791 790 790 795 796 789 778 769 760 751 757 759 766 766 765 755 708 704 696 714 697 671
798 799 800 801 801 802 803 805 808 811 814 817 816 820 820 815 809 812 809 806 803 800 793 790 786 786 787 790 791 787 781 772 773 769 764 758 756 757 753 749 732 704 709 711 731 700 675
793 794 794 793 794 794 795 797 800 803 805 809 807 812 814 807 801 803 802 801 801 800 799 791 793 783 787 793 785 776 772 762 763 755 754 753 755 751 746 747 738 708 701 711 700 700 697
788 787 785 785 785 785 787 789 791 793 796 800 798 801 804 802 792 789 789 790 791 790 793 789 789 788 791 780 771 762 764 757 752 754 742 749 740 741 741 733 717 708 708 707 703 705 698